PGT2264 LTFJ-LTFE

Flight info

Callsign PGT2264
Flight time 0h 57m
Altitude 38000
Route ROXUK1J/06L ROXUK UT409 NUMTI DCT KULAR UT44 KAVAK
Aircraft A20N/M-SDE2E3FGHIJ1RWXY/LB1

Departure

Time 2026-04-21 19:42
Airport Istanbul Sabiha Gökçen International Airport (LTFJ)

Arrival

Time 2026-04-21 20:39
Airport Milas Bodrum International Airport (LTFE)
Time Latitude Longitude Altitude Speed Heading
2026-04-21 18:58 40.90317 29.30858 320 ft 0 kts 334°
2026-04-21 19:31 40.90304 29.30866 297 ft 4 kts 334°
2026-04-21 19:31 40.90281 29.30884 322 ft 4 kts 319°
2026-04-21 19:31 40.90264 29.30910 320 ft 4 kts 285°
2026-04-21 19:31 40.90264 29.30933 319 ft 1 kts 244°
2026-04-21 19:32 40.90265 29.30936 320 ft 0 kts 244°
2026-04-21 19:36 40.90263 29.30930 319 ft 0 kts 244°
2026-04-21 19:36 40.90253 29.30904 318 ft 6 kts 244°
2026-04-21 19:36 40.90208 29.30879 320 ft 9 kts 166°
2026-04-21 19:36 40.90144 29.30918 320 ft 10 kts 156°
2026-04-21 19:37 40.90080 29.30921 320 ft 9 kts 202°
2026-04-21 19:37 40.90041 29.30856 319 ft 9 kts 244°
2026-04-21 19:37 40.90012 29.30773 320 ft 11 kts 244°
2026-04-21 19:37 40.89978 29.30678 320 ft 12 kts 244°
2026-04-21 19:38 40.89937 29.30568 320 ft 14 kts 242°
2026-04-21 19:38 40.89890 29.30445 320 ft 16 kts 244°
2026-04-21 19:38 40.89840 29.30308 320 ft 17 kts 244°
2026-04-21 19:38 40.89785 29.30158 320 ft 19 kts 244°
2026-04-21 19:39 40.89723 29.29987 319 ft 23 kts 244°
2026-04-21 19:39 40.89645 29.29780 319 ft 27 kts 244°
2026-04-21 19:39 40.89562 29.29549 319 ft 29 kts 243°
2026-04-21 19:39 40.89495 29.29368 320 ft 6 kts 244°
2026-04-21 19:40 40.89489 29.29353 319 ft 4 kts 244°
2026-04-21 19:40 40.89467 29.29293 320 ft 9 kts 241°
2026-04-21 19:40 40.89396 29.29254 320 ft 14 kts 170°
2026-04-21 19:40 40.89301 29.29323 322 ft 16 kts 126°
2026-04-21 19:41 40.89320 29.29467 321 ft 21 kts 64°
2026-04-21 19:41 40.89481 29.29896 321 ft 84 kts 65°
2026-04-21 19:41 40.89814 29.30808 321 ft 134 kts 64°
2026-04-21 19:41 40.90250 29.32021 644 ft 146 kts 62°
2026-04-21 19:42 40.90701 29.33244 1187 ft 150 kts 62°
2026-04-21 19:42 40.91166 29.34485 1794 ft 149 kts 64°
2026-04-21 19:42 40.91633 29.35743 2270 ft 161 kts 64°
2026-04-21 19:42 40.92162 29.37181 2543 ft 185 kts 64°
2026-04-21 19:43 40.92757 29.38839 2822 ft 214 kts 70°
2026-04-21 19:43 40.92973 29.40874 3301 ft 238 kts 97°
2026-04-21 19:43 40.92376 29.43013 3769 ft 261 kts 128°
2026-04-21 19:43 40.90999 29.44567 4621 ft 262 kts 155°
2026-04-21 19:44 40.89318 29.45655 5362 ft 276 kts 160°
2026-04-21 19:44 40.87556 29.46700 6339 ft 278 kts 161°
2026-04-21 19:44 40.85772 29.47765 7219 ft 285 kts 161°
2026-04-21 19:44 40.83960 29.48877 8123 ft 290 kts 160°
2026-04-21 19:45 40.82124 29.50028 9018 ft 295 kts 160°
2026-04-21 19:45 40.80256 29.51212 9924 ft 300 kts 160°
2026-04-21 19:45 40.78357 29.52449 10572 ft 315 kts 155°
2026-04-21 19:45 40.76500 29.54228 10848 ft 345 kts 141°
2026-04-21 19:46 40.74904 29.56714 11351 ft 363 kts 129°
2026-04-21 19:46 40.73396 29.59417 12165 ft 368 kts 129°
2026-04-21 19:46 40.71861 29.62138 12986 ft 372 kts 129°
2026-04-21 19:46 40.70298 29.64879 13791 ft 376 kts 130°
2026-04-21 19:47 40.68442 29.67279 14506 ft 373 kts 149°
2026-04-21 19:47 40.66121 29.68718 15221 ft 368 kts 169°
2026-04-21 19:47 40.63602 29.69120 15900 ft 365 kts 184°
2026-04-21 19:47 40.61061 29.69054 16634 ft 367 kts 187°
2026-04-21 19:48 40.58493 29.68907 17322 ft 371 kts 186°
2026-04-21 19:48 40.55894 29.68791 18009 ft 376 kts 185°
2026-04-21 19:48 40.53266 29.68724 18617 ft 380 kts 185°
2026-04-21 19:48 40.50610 29.68694 19201 ft 384 kts 184°
2026-04-21 19:49 40.47958 29.68681 19792 ft 388 kts 184°
2026-04-21 19:49 40.45247 29.68675 20381 ft 391 kts 184°
2026-04-21 19:49 40.42514 29.68670 20958 ft 395 kts 184°
2026-04-21 19:49 40.39752 29.68665 21528 ft 399 kts 184°
2026-04-21 19:50 40.37866 29.68661 21887 ft 402 kts 184°
2026-04-21 19:50 40.34138 29.68652 22676 ft 407 kts 184°
2026-04-21 19:50 40.31295 29.68645 23251 ft 410 kts 184°
2026-04-21 19:50 40.28425 29.68638 23773 ft 414 kts 185°
2026-04-21 19:51 40.25533 29.68632 24248 ft 417 kts 185°
2026-04-21 19:51 40.22623 29.68625 24741 ft 420 kts 185°
2026-04-21 19:51 40.19697 29.68619 25203 ft 422 kts 185°
2026-04-21 19:51 40.16748 29.68689 25656 ft 428 kts 181°
2026-04-21 19:52 40.13768 29.69028 26104 ft 431 kts 180°
2026-04-21 19:52 40.10772 29.69379 26549 ft 434 kts 180°
2026-04-21 19:52 40.07753 29.69729 26967 ft 437 kts 180°
2026-04-21 19:52 40.04716 29.70079 27398 ft 440 kts 180°
2026-04-21 19:53 40.01660 29.70429 27802 ft 442 kts 180°
2026-04-21 19:53 39.98587 29.70778 28223 ft 444 kts 180°
2026-04-21 19:53 39.95497 29.71128 28605 ft 447 kts 180°
2026-04-21 19:53 39.92390 29.71400 28970 ft 446 kts 186°
2026-04-21 19:54 39.89340 29.70971 29328 ft 438 kts 198°
2026-04-21 19:54 39.86473 29.69744 29707 ft 431 kts 210°
2026-04-21 19:54 39.83863 29.67862 30032 ft 429 kts 217°
2026-04-21 19:54 39.81303 29.65843 30308 ft 432 kts 216°
2026-04-21 19:55 39.78724 29.63818 30634 ft 434 kts 216°
2026-04-21 19:55 39.76136 29.61792 30962 ft 435 kts 216°
2026-04-21 19:55 39.73536 29.59763 31345 ft 436 kts 216°
2026-04-21 19:55 39.70942 29.57744 31772 ft 434 kts 216°
2026-04-21 19:56 39.68353 29.55730 32197 ft 433 kts 217°
2026-04-21 19:56 39.65775 29.53725 32576 ft 432 kts 217°
2026-04-21 19:56 39.63200 29.51718 32991 ft 431 kts 218°
2026-04-21 19:56 39.60690 29.49627 33406 ft 428 kts 219°
2026-04-21 19:57 39.58223 29.47484 33795 ft 426 kts 220°
2026-04-21 19:57 39.55769 29.45342 34145 ft 425 kts 220°
2026-04-21 19:57 39.53312 29.43212 34428 ft 425 kts 219°
2026-04-21 19:57 39.50846 29.41090 34665 ft 425 kts 219°
2026-04-21 19:58 39.48412 29.39006 34901 ft 426 kts 219°
2026-04-21 19:58 39.45939 29.36897 35163 ft 426 kts 219°
2026-04-21 19:58 39.43465 29.34790 35415 ft 426 kts 219°
2026-04-21 19:58 39.40990 29.32684 35653 ft 426 kts 219°
2026-04-21 19:59 39.38513 29.30579 35907 ft 426 kts 219°
2026-04-21 19:59 39.36041 29.28479 36152 ft 426 kts 219°
2026-04-21 19:59 39.33565 29.26378 36353 ft 426 kts 219°
2026-04-21 19:59 39.31089 29.24278 36583 ft 426 kts 219°
2026-04-21 20:00 39.28616 29.22182 36850 ft 425 kts 219°
2026-04-21 20:00 39.26146 29.20091 37054 ft 425 kts 219°
2026-04-21 20:00 39.23675 29.18001 37252 ft 425 kts 219°
2026-04-21 20:00 39.21202 29.15910 37453 ft 425 kts 219°
2026-04-21 20:01 39.18729 29.13822 37632 ft 425 kts 219°
2026-04-21 20:01 39.16251 29.11732 37792 ft 426 kts 219°
2026-04-21 20:01 39.13772 29.09643 37974 ft 426 kts 219°
2026-04-21 20:02 39.08820 29.05476 37974 ft 424 kts 219°
2026-04-21 20:02 39.03877 29.01321 37971 ft 425 kts 219°
2026-04-21 20:03 38.98930 28.97171 37963 ft 425 kts 219°
2026-04-21 20:03 38.93985 28.93028 37960 ft 424 kts 219°
2026-04-21 20:04 38.89047 28.88900 37967 ft 423 kts 219°
2026-04-21 20:04 38.84114 28.84783 37962 ft 422 kts 219°
2026-04-21 20:05 38.79218 28.80704 37963 ft 423 kts 219°
2026-04-21 20:05 38.74289 28.76603 37949 ft 422 kts 219°
2026-04-21 20:06 38.69358 28.72507 37953 ft 422 kts 219°
2026-04-21 20:06 38.64425 28.68417 37955 ft 423 kts 218°
2026-04-21 20:07 38.59139 28.65001 37955 ft 433 kts 204°
2026-04-21 20:07 38.54170 28.63779 37956 ft 445 kts 189°
2026-04-21 20:08 38.46864 28.64213 37946 ft 451 kts 182°
2026-04-21 20:08 38.40602 28.64736 37953 ft 451 kts 182°
2026-04-21 20:09 38.34325 28.65250 37963 ft 452 kts 182°
2026-04-21 20:09 38.28034 28.65770 37970 ft 453 kts 182°
2026-04-21 20:10 38.21738 28.66288 37982 ft 454 kts 182°
2026-04-21 20:10 38.15430 28.66805 37984 ft 455 kts 182°
2026-04-21 20:11 38.09109 28.67322 37954 ft 456 kts 182°
2026-04-21 20:11 38.05946 28.67582 37680 ft 455 kts 182°
2026-04-21 20:11 38.02787 28.67841 37406 ft 455 kts 182°
2026-04-21 20:11 37.99672 28.68094 37150 ft 454 kts 182°
2026-04-21 20:12 37.96523 28.68352 36882 ft 454 kts 182°
2026-04-21 20:12 37.93364 28.68609 36622 ft 455 kts 182°
2026-04-21 20:12 37.91230 28.68783 36456 ft 455 kts 182°
2026-04-21 20:12 37.87043 28.69124 36095 ft 455 kts 182°
2026-04-21 20:13 37.83834 28.69384 35839 ft 457 kts 182°
2026-04-21 20:13 37.80701 28.69639 35596 ft 457 kts 182°
2026-04-21 20:13 37.77487 28.69900 35349 ft 457 kts 182°
2026-04-21 20:13 37.74315 28.70157 35072 ft 457 kts 182°
2026-04-21 20:14 37.71128 28.70413 34495 ft 460 kts 182°
2026-04-21 20:14 37.67925 28.70649 33669 ft 463 kts 182°
2026-04-21 20:14 37.64686 28.70871 32634 ft 469 kts 182°
2026-04-21 20:14 37.61474 28.71092 31953 ft 467 kts 182°
2026-04-21 20:15 37.58234 28.71318 31135 ft 468 kts 182°
2026-04-21 20:15 37.54971 28.71546 30303 ft 470 kts 182°
2026-04-21 20:15 37.51718 28.71775 29631 ft 466 kts 182°
2026-04-21 20:15 37.48512 28.72012 29218 ft 456 kts 181°
2026-04-21 20:16 37.45363 28.72302 28605 ft 452 kts 180°
2026-04-21 20:16 37.42253 28.72544 28078 ft 441 kts 186°
2026-04-21 20:16 37.39276 28.72071 27685 ft 425 kts 200°
2026-04-21 20:16 37.36556 28.70776 27022 ft 414 kts 214°
2026-04-21 20:17 37.34262 28.68715 26541 ft 399 kts 227°
2026-04-21 20:17 37.32479 28.66099 25942 ft 390 kts 240°
2026-04-21 20:17 37.31127 28.63132 25377 ft 385 kts 244°
2026-04-21 20:17 37.29848 28.60248 24903 ft 380 kts 244°
2026-04-21 20:18 37.28971 28.58294 24501 ft 380 kts 243°
2026-04-21 20:18 37.27258 28.54492 23761 ft 377 kts 243°
2026-04-21 20:18 37.25973 28.51648 23233 ft 372 kts 243°
2026-04-21 20:18 37.24703 28.48843 22704 ft 367 kts 243°
2026-04-21 20:19 37.23449 28.46074 22182 ft 363 kts 243°
2026-04-21 20:19 37.22209 28.43341 21693 ft 358 kts 243°
2026-04-21 20:19 37.20982 28.40637 21167 ft 355 kts 243°
2026-04-21 20:19 37.19764 28.37956 20665 ft 352 kts 243°
2026-04-21 20:20 37.18558 28.35302 20162 ft 349 kts 243°
2026-04-21 20:20 37.17361 28.32669 19659 ft 346 kts 243°
2026-04-21 20:20 37.16556 28.30899 19319 ft 345 kts 243°
2026-04-21 20:20 37.15385 28.28329 18831 ft 343 kts 243°
2026-04-21 20:21 37.14202 28.25736 18318 ft 342 kts 243°
2026-04-21 20:21 37.13005 28.23127 17791 ft 339 kts 243°
2026-04-21 20:21 37.11834 28.20576 17297 ft 336 kts 243°
2026-04-21 20:21 37.10671 28.18048 16837 ft 333 kts 243°
2026-04-21 20:22 37.09537 28.15585 16693 ft 320 kts 243°
2026-04-21 20:22 37.07429 28.10883 16247 ft 301 kts 250°
2026-04-21 20:22 37.06942 28.08390 15996 ft 294 kts 268°
2026-04-21 20:23 37.07111 28.05846 15748 ft 295 kts 282°
2026-04-21 20:23 37.07557 28.03347 15505 ft 293 kts 282°
2026-04-21 20:23 37.07998 28.00852 15115 ft 295 kts 282°
2026-04-21 20:23 37.08438 27.98333 14671 ft 296 kts 282°
2026-04-21 20:24 37.08873 27.95820 14253 ft 293 kts 282°
2026-04-21 20:24 37.09303 27.93332 13645 ft 292 kts 282°
2026-04-21 20:24 37.09731 27.90854 12947 ft 291 kts 282°
2026-04-21 20:24 37.10156 27.88384 12323 ft 288 kts 282°
2026-04-21 20:25 37.10570 27.85982 12088 ft 277 kts 282°
2026-04-21 20:25 37.10966 27.83676 12006 ft 264 kts 282°
2026-04-21 20:25 37.11341 27.81491 11993 ft 249 kts 282°
2026-04-21 20:25 37.11696 27.79417 11997 ft 249 kts 282°
2026-04-21 20:26 37.12077 27.77289 11990 ft 250 kts 285°
2026-04-21 20:26 37.12577 27.75202 11777 ft 251 kts 287°
2026-04-21 20:26 37.13084 27.73106 11270 ft 252 kts 287°
2026-04-21 20:26 37.13591 27.70999 10732 ft 253 kts 287°
2026-04-21 20:27 37.14097 27.68889 10209 ft 253 kts 287°
2026-04-21 20:27 37.14601 27.66783 9703 ft 252 kts 287°
2026-04-21 20:27 37.15102 27.64686 9165 ft 250 kts 287°
2026-04-21 20:27 37.15601 27.62599 8662 ft 250 kts 287°
2026-04-21 20:28 37.16099 27.60512 8323 ft 249 kts 286°
2026-04-21 20:28 37.16594 27.58435 7995 ft 247 kts 286°
2026-04-21 20:28 37.17075 27.56417 7886 ft 236 kts 286°
2026-04-21 20:28 37.17540 27.54462 7641 ft 233 kts 286°
2026-04-21 20:29 37.18002 27.52520 7336 ft 232 kts 286°
2026-04-21 20:29 37.18461 27.50583 7015 ft 232 kts 286°
2026-04-21 20:29 37.18921 27.48646 6709 ft 231 kts 285°
2026-04-21 20:29 37.19379 27.46716 6413 ft 231 kts 285°
2026-04-21 20:30 37.19837 27.44788 6093 ft 230 kts 285°
2026-04-21 20:30 37.20292 27.42868 5807 ft 229 kts 285°
2026-04-21 20:30 37.20743 27.40957 5503 ft 228 kts 285°
2026-04-21 20:30 37.21192 27.39060 5157 ft 226 kts 284°
2026-04-21 20:31 37.21637 27.37173 4809 ft 225 kts 284°
2026-04-21 20:31 37.22128 27.35312 4447 ft 225 kts 296°
2026-04-21 20:31 37.23192 27.33934 4261 ft 219 kts 331°
2026-04-21 20:31 37.24637 27.33558 4136 ft 212 kts
2026-04-21 20:32 37.26039 27.34016 3988 ft 206 kts 19°
2026-04-21 20:32 37.27407 27.34681 3985 ft 212 kts 20°
2026-04-21 20:32 37.28778 27.35331 3995 ft 210 kts 19°
2026-04-21 20:32 37.30114 27.35935 3996 ft 196 kts 24°
2026-04-21 20:33 37.31105 27.36986 3873 ft 182 kts 60°
2026-04-21 20:33 37.31465 27.38432 3764 ft 168 kts 89°
2026-04-21 20:33 37.31388 27.39837 3662 ft 157 kts 103°
2026-04-21 20:33 37.31129 27.41191 3568 ft 160 kts 108°
2026-04-21 20:34 37.30818 27.42523 3486 ft 158 kts 109°
2026-04-21 20:34 37.30508 27.43828 3400 ft 158 kts 109°
2026-04-21 20:34 37.30196 27.45145 3309 ft 157 kts 109°
2026-04-21 20:34 37.29884 27.46459 3196 ft 158 kts 109°
2026-04-21 20:35 37.29574 27.47767 3022 ft 151 kts 109°
2026-04-21 20:35 37.29287 27.48978 2814 ft 139 kts 109°
2026-04-21 20:35 37.29007 27.50153 2627 ft 141 kts 109°
2026-04-21 20:35 37.28729 27.51322 2429 ft 138 kts 109°
2026-04-21 20:36 37.28456 27.52472 2240 ft 138 kts 109°
2026-04-21 20:36 37.28182 27.53625 2039 ft 138 kts 108°
2026-04-21 20:36 37.27910 27.54768 1839 ft 136 kts 108°
2026-04-21 20:36 37.27640 27.55903 1641 ft 136 kts 108°
2026-04-21 20:37 37.27372 27.57033 1436 ft 133 kts 108°
2026-04-21 20:37 37.27108 27.58143 1254 ft 132 kts 107°
2026-04-21 20:37 37.26846 27.59249 1056 ft 132 kts 106°
2026-04-21 20:37 37.26594 27.60346 868 ft 130 kts 107°
2026-04-21 20:38 37.26330 27.61438 681 ft 132 kts 108°
2026-04-21 20:38 37.26070 27.62520 469 ft 127 kts 108°
2026-04-21 20:38 37.25819 27.63580 298 ft 129 kts 108°
2026-04-21 20:38 37.25564 27.64649 111 ft 127 kts 108°
2026-04-21 20:39 37.25310 27.65682 15 ft 116 kts 107°
2026-04-21 20:39 37.25157 27.66329 17 ft 42 kts 107°
2026-04-21 20:39 37.25080 27.66591 18 ft 30 kts 122°
2026-04-21 20:39 37.24999 27.66707 20 ft 11 kts 135°
2026-04-21 20:40 37.24937 27.66782 19 ft 14 kts 136°
2026-04-21 20:40 37.24860 27.66875 18 ft 17 kts 136°
2026-04-21 20:40 37.24778 27.66959 20 ft 9 kts 145°
2026-04-21 20:40 37.24715 27.66976 20 ft 10 kts 195°
2026-04-21 20:41 37.24653 27.67003 21 ft 11 kts 112°
2026-04-21 20:41 37.24629 27.67107 21 ft 13 kts 106°
2026-04-21 20:41 37.24609 27.67186 22 ft 9 kts 108°
2026-04-21 20:41 37.24591 27.67259 26 ft 9 kts 106°
2026-04-21 20:42 37.24574 27.67333 25 ft 3 kts 106°
2026-04-21 20:42 37.24574 27.67335 24 ft 0 kts 106°
2026-04-21 20:42 37.24572 27.67336 24 ft 0 kts 120°
2026-04-21 20:42 37.24570 27.67336 24 ft 1 kts 146°
2026-04-21 20:43 37.24564 27.67331 23 ft 2 kts 205°
2026-04-21 20:43 37.24541 27.67318 23 ft 3 kts 199°
2026-04-21 20:43 37.24519 27.67310 22 ft 0 kts 198°
2026-04-21 20:43 37.24517 27.67309 22 ft 0 kts 198°